Location: CNYAC Observatory
(43.2150°N, 74.9500°W)
Time: 11:15:09
(UTC-05:00)

Cosmos 1975 Rocket - Visible Passes

Search period start: 19 February 2018 00:00
Search period end: 01 March 2018 00:00
Orbit: 603 x 634 km, 82.5° (Epoch: 19 February)

Date Brightness Start Highest point End Pass type
(mag) Time Alt. Az. Time Alt. Az. Time Alt. Az.
19 Feb 3.6 19:03:26 10° N 19:07:31 35° ENE 19:07:57 34° E visible
19 Feb 5.4 20:41:49 10° NW 20:45:08 21° W 20:45:11 21° W visible
20 Feb 3.0 19:20:31 10° N 19:24:55 66° E 19:26:49 33° SSE visible
20 Feb 6.2 21:00:42 10° WNW 21:02:11 11° W 21:03:39 10° WSW visible
21 Feb 3.4 19:37:50 10° NNW 19:42:15 67° W 19:46:31 11° S visible
22 Feb 4.3 18:18:06 10° NNE 18:21:31 21° ENE 18:24:56 10° ESE visible
22 Feb 4.6 19:55:25 10° NNW 19:59:29 35° W 20:03:32 10° SSW visible
23 Feb 3.6 18:34:53 10° N 18:39:02 37° ENE 18:43:11 10° SE visible
23 Feb 5.7 20:13:23 10° NW 20:16:36 20° W 20:19:51 10° SW visible
24 Feb 3.0 18:52:00 10° N 18:56:26 70° E 19:00:53 10° SSE visible
24 Feb 6.4 20:32:28 10° WNW 20:33:39 11° W 20:34:51 10° W visible
25 Feb 3.6 19:09:20 10° NNW 19:13:45 63° W 19:18:10 10° S visible
26 Feb 4.8 19:26:57 10° NNW 19:30:58 34° W 19:35:00 10° SSW visible
27 Feb 5.9 19:44:56 10° NW 19:48:06 19° W 19:51:15 10° SW visible
28 Feb 3.0 18:23:28 10° N 18:27:57 73° E 18:32:25 10° SSE visible
28 Feb 6.6 20:04:20 10° WNW 20:05:08 10° W 20:05:56 10° W visible
